Regional Weather Roundup
Issued by NWS

Home | Current Version | Previous Version | Graphics & Text | Print | Product List | Glossary On
Versions: 1 2 3 4 5 6 7 8 9 10 11 12 13 14 15 16 17 18 19 20 21 22 23 24 25 26 27 28 29 30 31 32 33 34 35 36 37 38 39 40 41 42 43 44 45 46 47 48 49 50
000
ASUS45 KSLC 182310
RWRUT

UTAH REGIONAL WEATHER ROUNDUP
NATIONAL WEATHER SERVICE SALT LAKE CITY UT
500 PM MDT WED APR 18 2018

UTZ001>011-023>025-190000-

NORTHERN UTAH

CITY           SKY/WX    TMP DP  RH WIND       PRES   REMARKS
BRIGHAM CITY   MOSUNNY   55  18  23 W7        30.08F
HILL AFB       MOSUNNY   53  20  28 CALM      30.07F
LOGAN          MOSUNNY   59  22  24 CALM      30.07F
OGDEN          MOSUNNY   54  21  27 W6        30.07F
SALT LAKE CITY CLOUDY    58  15  18 SE5       30.05F
TOOELE VALLEY  CLOUDY    54  28  37 N8        30.07F
WENDOVER       CLOUDY    56  16  20 E16       30.05F
HEBER CITY       N/A     55   9  15 SE8       30.04F
WEST JORDAN    CLOUDY    55  22  27 SE7       30.06F

$$

UTZ011>015-024>027-190000-

CENTRAL/NORTHEAST UTAH

CITY           SKY/WX    TMP DP  RH WIND       PRES   REMARKS
PROVO AIRPORT  PTSUNNY   54  20  26 W7        30.07F
MOAB/CANYONLAN SUNNY     59   0   9 E7        30.10F
DELTA          PTSUNNY   55  18  22 W3        30.04F
PRICE          SUNNY     52  -1  11 VRB5      30.13F
ROOSEVELT      SUNNY     54   1  12 CALM      30.16F
VERNAL         SUNNY     54  -3   9 SW5       30.14F

$$

UTZ013>016-019>022-027-190000-

SOUTHERN UTAH

CITY           SKY/WX    TMP DP  RH WIND       PRES   REMARKS
BRYCE CANYON   SUNNY     49   2  14 S14G24    30.14F
CEDAR CITY     SUNNY     60   8  12 S14G22    30.00F
MILFORD        MOSUNNY   62  18  18 NW6       30.00F
ST GEORGE      MOCLDY    75   8   7 SE15      29.92F
HANKSVILLE     SUNNY     59   3  10 CALM      30.13F
BLANDING         N/A     56 -11   6 S7        30.21F

$$

REGIONAL REPORTS     COLORADO/ARIZONA

CITY           SKY/WX    TMP DP  RH WIND       PRES   REMARKS
CRAIG, CO      MOSUNNY   51  20  29 E8        30.17F
GRAND JUNCTION SUNNY     60   8  12 W9        30.10F
RIFLE, CO      SUNNY     57  12  17 VRB5      30.12F
MONTROSE, CO   SUNNY     56  -8   7 NW9       30.13F
CORTEZ, CO     SUNNY     60 -14   4 VRB7      30.14F
COLORADO CITY    N/A     68   9  10 E9        30.05F
PAGE, AZ       SUNNY     63   7  11 N5        30.06F
GRAND CANYON   SUNNY     60  -2   8 SW6G22    30.11F
KINGMAN, AZ    SUNNY     74  10   8 SW16G23   29.97F
FLAGSTAFF, AZ  SUNNY     60   1   9 SW13G21   30.12F

$$

REGIONAL REPORTS    NEVADA/IDAHO/WYOMING

CITY           SKY/WX    TMP DP  RH WIND       PRES   REMARKS
LAS VEGAS, NV  PTSUNNY   74  10   8 NW5       29.92F
ELY, NY        CLOUDY    54   5  14 S18G25    29.99F
ELKO, NV       CLOUDY    55  15  20 VRB7      29.95F
POCATELLO, ID  PTSUNNY   54  16  22 W3        30.08F
BURLEY, ID     PTSUNNY   56  22  26 SE12      30.02F
FORT BRIDGER,    N/A     51   5  15 SE5       30.15F
EVANSTON, WY   MOSUNNY   50  11  20 VRB7      30.09F
ROCK SPRINGS,  MOSUNNY   49   1  14 S12       30.14F
KEMMERER, WY   SUNNY     48   1  14 E9        30.13F

$$



USA.gov is the U.S. government's official web portal to all federal, state and local government web resources and services.